Johnstown, PA

3:12 AM EST on December 08, 2016 (GMT -0500)
Johnstown-Cambria County

Weather History for KJST - November, 2013

Change the Weather History Date:

Saturday, November 30, 2013

  Actual Average Record
Temperature  
Mean Temperature 22 °F 33 °F  
Max Temperature 26 °F 39 °F 74 °F (1908)
Min Temperature 18 °F 28 °F 3 °F (1929)
Degree Days  
Heating Degree Days 43 32  
Month to date heating degree days 922 764  
Since 1 July heating degree days 1631 1457  
Cooling Degree Days 0 0  
Month to date cooling degree days 0 0  
Year to date cooling degree days 393 382  
Moisture  
Dew Point 17 °F    
Average Humidity 83    
Maximum Humidity 92    
Minimum Humidity 73    
Precipitation  
Precipitation 0.00 in 0.14 in 1.25 in (2010)
Month to date precipitation 2.34 3.70  
Year to date precipitation 33.99 31.05  
Sea Level Pressure  
Sea Level Pressure 30.51 in    
Wind  
Wind Speed 11 mph (SSE)    
Max Wind Speed 21 mph    
Max Gust Speed 27 mph    
Visibility 10 miles    
Events      
T = Trace of Precipitation, MM = Missing Value Source: NWS Daily Summary

Daily Weather History Graph

Daily Weather History Graph

Search for Another Location

Airport or City:

Trip Planner

Search our weather history database for the weather conditions in past years. The results will help you decide how hot, cold, wet, or windy it might be!

Date:

Astronomy

Nov. 30, 2013 Rise Set
Actual Time 7:18 AM EST 4:49 PM EST
Civil Twilight 6:47 AM EST 5:20 PM EST
Nautical Twilight 6:14 AM EST 5:53 PM EST
Astronomical Twilight 5:41 AM EST 6:26 PM EST
Moon 4:26 AM EST (11/30) 3:13 PM EST (11/30)
Length of Visible Light 10h 32m
Length of Day
9h 31m
Waning Crescent, 7% of the Moon is Illuminated
Nov 30
Waning Crescent
Dec 2
New
Dec 9
First Quarter
Dec 17
Full
Dec 25
Last Quarter

Hourly Weather History & Observations

Time (EST) Temp. Windchill Dew Point Humidity Pressure Visibility Wind Dir Wind Speed Gust Speed Precip Events Conditions
12:54 AM 18.0 °F 9.8 °F 16.0 °F 92% 30.66 in 8.0 mi ESE 5.8 mph - N/A   Clear
1:50 AM 19.4 °F 7.9 °F 15.8 °F 86% 30.55 in 10.0 mi SE 10.4 mph - N/A   Partly Cloudy
1:54 AM 19.0 °F 7.5 °F 16.0 °F 88% 30.66 in 10.0 mi SE 10.4 mph - N/A   Partly Cloudy
2:54 AM 19.0 °F 7.5 °F 16.0 °F 88% 30.65 in 10.0 mi SE 10.4 mph - N/A   Clear
3:54 AM 19.0 °F 8.2 °F 15.1 °F 85% 30.63 in 10.0 mi SE 9.2 mph - N/A   Clear
4:54 AM 18.0 °F 5.4 °F 15.1 °F 88% 30.63 in 10.0 mi SE 11.5 mph - N/A   Clear
5:54 AM 18.0 °F 6.1 °F 14.0 °F 84% 30.62 in 10.0 mi SE 10.4 mph - N/A   Clear
6:54 AM 18.0 °F 6.1 °F 14.0 °F 84% 30.62 in 10.0 mi SSE 10.4 mph - N/A   Clear
7:54 AM 19.0 °F 6.8 °F 12.9 °F 77% 30.61 in 10.0 mi SSE 11.5 mph - N/A   Clear
8:54 AM 19.9 °F 7.9 °F 14.0 °F 78% 30.60 in 10.0 mi SE 11.5 mph 20.7 mph N/A   Clear
9:54 AM 21.0 °F 6.2 °F 15.1 °F 78% 30.59 in 10.0 mi SSE 18.4 mph 21.9 mph N/A   Clear
10:54 AM 21.9 °F 7.8 °F 16.0 °F 78% 30.57 in 10.0 mi SSE 17.3 mph - N/A   Clear
11:54 AM 23.0 °F 9.6 °F 18.0 °F 81% 30.54 in 10.0 mi SSE 16.1 mph - N/A   Clear
12:54 PM 25.0 °F 12.6 °F 19.0 °F 78% 30.51 in 10.0 mi SSE 15.0 mph 20.7 mph N/A   Partly Cloudy
1:54 PM 26.1 °F 15.0 °F 19.9 °F 78% 30.46 in 10.0 mi SSE 12.7 mph - N/A   Clear
2:54 PM 26.1 °F 14.5 °F 19.9 °F 78% 30.44 in 10.0 mi South 13.8 mph - N/A   Mostly Cloudy
3:54 PM 25.0 °F 14.8 °F 19.0 °F 78% 30.43 in 10.0 mi SSE 10.4 mph - N/A   Mostly Cloudy
4:54 PM 25.0 °F 16.3 °F 19.0 °F 78% 30.40 in 10.0 mi SSE 8.1 mph - N/A   Partly Cloudy
5:54 PM 24.1 °F 13.7 °F 18.0 °F 77% 30.39 in 10.0 mi South 10.4 mph - N/A   Clear
6:54 PM 24.1 °F 12.5 °F 18.0 °F 77% 30.38 in 10.0 mi South 12.7 mph - N/A   Clear
7:54 PM 23.0 °F 15.8 °F 18.0 °F 81% 30.38 in 10.0 mi South 5.8 mph - N/A   Clear
8:54 PM 24.1 °F 13.7 °F 18.0 °F 77% 30.35 in 10.0 mi South 10.4 mph - N/A   Clear
9:54 PM 24.1 °F 15.2 °F 19.0 °F 81% 30.34 in 9.0 mi SSW 8.1 mph - N/A   Clear
10:54 PM 25.0 °F 17.1 °F 19.0 °F 78% 30.32 in 9.0 mi South 6.9 mph - N/A   Partly Cloudy
11:54 PM 24.1 °F 16.0 °F 19.0 °F 81% 30.30 in 9.0 mi South 6.9 mph - N/A   Clear